COSMOS 1525

Satellite information

Favourite Embed

Satellite Type and Status

PAYLOADIN ORBIT

Key statistics

Satellite COSMOS 1525 at a glance.

Uptime

15324

Days in orbit

Revolutions

≈ 12.5

Per day

Orbit

LEO

Low Earth Orbit

Inclination

74.0

Latest

Satellite identification and parameters

Extended collection of information and parameters for COSMOS 1525.

Object identification

Identified? True

Debris? False

Object name: COSMOS 1525

International designator: 1984-001D

Object number (NORAD): 14614

Object ID (CCSDS): 14614

Country: COMMONWEALTH OF INDEPENDENT STATES (CIS)

Current information (Y/N): Y

RCS size: MEDIUM

Orbital parameters

Period: 114.749 minutes

Inclination: 74.0094 deg

SMA: 7822.17 km

Apoapsis: 1461.839 km

Periapsis: 1426.231 km

RAAN: 3.7627 deg

Eccentricy: 0.00227606

Argument of periapsis: 293.2596 deg

Mean anomaly: 178.8157 deg

Mean motion: 12.54908014 rev/day

Mean motion (dot): 0.00000001 rev/day2

B* drag term: 0.00010465349 1/REarth

Two-line elements (TLE)

Creation date: Dec. 18, 2025, 8:02 p.m.

Reference frame: TEME

Reference center: EARTH

Epoch: Dec. 18, 2025, 11:29 a.m. UTC

TLE line 0: 0 COSMOS 1525

TLE line 1: 1 14614U 84001D 25352.47893934 .00000001 00000-0 10465-3 0 9993

TLE line 2: 2 14614 74.0094 3.7627 0022761 293.2596 178.8157 12.54908014921778

Live tracking on map

Real-time ground track for satellite COSMOS 1525.

In-orbit conjunctions

There are no conjunctions computed for COSMOS 1525, at the moment. Check back to stay up to date, as we update our databases every day.

Go to all conjunctions

Associated space launch

Military communications satellites

COSMOS 1525 was lifted into orbit during the mission ‘Kosmos-3M | Strela-1M 273-280’, on board a Kosmos-3M space rocket.

The launch took place on Jan. 5, 1984, 8:09 p.m. from 132/2.

For more information about the launch, click the button.

Launch to space Kosmos-3M | Strela-1M 273-280
Kosmos-3M | Strela-1M 273-280

Agency: N/A

Status: Launch Successful

Launch date: Jan. 5, 1984, 8:09 p.m. UTC

Rocket: Kosmos-3M

Launch pad: 132/2

Location: Plesetsk Cosmodrome, Russian Federation

...

Latest news about this satellite

There are no fresh news available about this satellite. Check back as we update our databases every day.


Newsletter sign-up

Weekly statistics, charts and insights to help you stay on top of the space industry.